Change the Weather History Date:

Friday, March 8, 2013

  Actual Average (KCRP) Record (KCRP)
Temperature  
Mean Temperature 72 °F 64 °F  
Max Temperature 78 °F 74 °F 88 °F (1999)
Min Temperature 66 °F 55 °F 31 °F (1956)
Degree Days  
Heating Degree Days 0 4  
Month to date heating degree days 32  
Since 1 July heating degree days 832  
Cooling Degree Days 7 3  
Month to date cooling degree days 23  
Year to date cooling degree days 99  
Growing Degree Days 22 (Base 50)    
Moisture  
Dew Point 64 °F    
Average Humidity 79    
Maximum Humidity 94    
Minimum Humidity 60    
Precipitation  
Precipitation 0.05 in 0.07 in 1.04 in (2015)
Month to date precipitation 0.56  
Year to date precipitation 4.03  
Snow  
Snow 0.00 in - - ()
Month to date snowfall  
Since 1 July snowfall  
Snow Depth -    
Sea Level Pressure  
Sea Level Pressure 30.06 in    
Wind  
Wind Speed 14 mph (SE)    
Max Wind Speed 25 mph    
Max Gust Speed 33 mph    
Visibility 9 miles    
Events Rain    
T = Trace of Precipitation, MM = Missing Value Source: NWS Daily Summary

Daily Weather History Graph

Daily Weather History Graph

Search for Another Location

Airport or City:

Trip Planner

Search our weather history database for the weather conditions in past years. The results will help you decide how hot, cold, wet, or windy it might be!

Date:

Astronomy

Mar. 08, 2013 Rise Set
Actual Time 6:47 AM CST 6:35 PM CST
Civil Twilight 6:24 AM CST 6:59 PM CST
Nautical Twilight 5:57 AM CST 7:26 PM CST
Astronomical Twilight 5:29 AM CST 7:53 PM CST
Moon 4:18 AM CST (3/8) 3:44 PM CST (3/8)
Length of Visible Light 12h 34m
Length of Day
11h 48m
Waning Crescent, 11% of the Moon is Illuminated
Mar 8
Waning Crescent
Mar 11
New
Mar 19
First Quarter
Mar 27
Full
Apr 2
Last Quarter

Hourly Weather History & Observations

Time (CST) Temp. Dew Point Humidity Pressure Visibility Wind Dir Wind Speed Gust Speed Precip Events Conditions
12:15 AM 66.2 °F 61.0 °F 83% 30.12 in 10.0 mi SE 10.4 mph - N/A   Mostly Cloudy
12:35 AM 66.2 °F 61.0 °F 83% 30.12 in 10.0 mi ESE 9.2 mph - N/A   Mostly Cloudy
12:55 AM 66.2 °F 61.3 °F 84% 30.12 in 10.0 mi SE 9.2 mph - N/A   Overcast
1:15 AM 66.6 °F 61.7 °F 84% 30.10 in 10.0 mi SE 10.4 mph - N/A   Overcast
1:35 AM 67.1 °F 62.4 °F 85% 30.10 in 10.0 mi SE 11.5 mph - N/A   Overcast
1:55 AM 67.6 °F 62.6 °F 84% 30.10 in 10.0 mi SE 10.4 mph - N/A   Overcast
2:15 AM 68.5 °F 62.8 °F 82% 30.09 in 10.0 mi SE 13.8 mph - N/A   Overcast
2:35 AM 68.9 °F 62.8 °F 81% 30.09 in 10.0 mi SE 13.8 mph - N/A   Overcast
2:55 AM 68.5 °F 62.8 °F 82% 30.07 in 10.0 mi SE 15.0 mph - N/A   Overcast
3:15 AM 68.4 °F 63.0 °F 83% 30.07 in 10.0 mi SE 11.5 mph - N/A   Overcast
3:35 AM 68.4 °F 63.0 °F 83% 30.05 in 10.0 mi SE 15.0 mph - N/A   Overcast
3:55 AM 68.4 °F 63.1 °F 83% 30.06 in 10.0 mi SE 13.8 mph - N/A   Overcast
4:15 AM 68.4 °F 63.1 °F 83% 30.05 in 10.0 mi SE 13.8 mph - N/A   Overcast
4:35 AM 68.5 °F 63.5 °F 84% 30.05 in 10.0 mi SE 13.8 mph - N/A   Mostly Cloudy
4:55 AM 68.9 °F 63.5 °F 83% 30.05 in 10.0 mi SE 13.8 mph - N/A   Scattered Clouds
5:15 AM 68.9 °F 63.5 °F 83% 30.07 in 10.0 mi SSE 16.1 mph - N/A   Mostly Cloudy
5:35 AM 67.6 °F 64.4 °F 89% 30.07 in 4.0 mi SSE 10.4 mph - N/A Rain Rain
5:55 AM 67.1 °F 64.8 °F 92% 30.07 in 4.0 mi South 6.9 mph - N/A Rain Rain
6:15 AM 66.7 °F 64.8 °F 93% 30.07 in 4.0 mi SE 10.4 mph - 0.02 in Rain Light Rain
6:35 AM 67.1 °F 64.9 °F 93% 30.07 in 5.0 mi South 8.1 mph - 0.03 in Rain Light Rain
6:55 AM 67.1 °F 65.3 °F 94% 30.08 in 4.0 mi South 5.8 mph - 0.01 in   Heavy Drizzle
7:15 AM 67.1 °F 65.3 °F 94% 30.08 in 2.5 mi SE 6.9 mph - 0.02 in   Drizzle
7:35 AM 67.1 °F 65.3 °F 94% 30.08 in 5.0 mi SE 8.1 mph - 0.02 in Rain Light Rain
7:55 AM 67.6 °F 65.7 °F 93% 30.08 in 5.0 mi SE 10.4 mph - N/A   Mostly Cloudy
8:15 AM 68.0 °F 65.7 °F 92% 30.09 in 7.0 mi SE 10.4 mph - N/A   Scattered Clouds
8:35 AM 68.4 °F 65.8 °F 92% 30.09 in 7.0 mi SE 11.5 mph - N/A   Scattered Clouds
8:55 AM 69.1 °F 66.4 °F 91% 30.09 in 7.0 mi SE 11.5 mph - N/A   Mostly Cloudy
9:15 AM 70.0 °F 66.7 °F 89% 30.10 in 7.0 mi SE 11.5 mph - N/A   Scattered Clouds
9:35 AM 70.7 °F 66.6 °F 87% 30.10 in 7.0 mi SE 12.7 mph - N/A   Scattered Clouds
9:55 AM 71.2 °F 67.1 °F 87% 30.10 in 7.0 mi SSE 15.0 mph - N/A   Scattered Clouds
10:15 AM 72.1 °F 67.1 °F 84% 30.10 in 10.0 mi SSE 16.1 mph 20.7 mph N/A   Scattered Clouds
10:35 AM 72.5 °F 67.3 °F 84% 30.11 in 10.0 mi SE 18.4 mph 23.0 mph N/A   Scattered Clouds
10:55 AM 73.0 °F 67.5 °F 83% 30.10 in 10.0 mi SE 18.4 mph 24.2 mph N/A   Scattered Clouds
11:15 AM 74.3 °F 67.1 °F 78% 30.10 in 10.0 mi SE 19.6 mph 24.2 mph N/A   Scattered Clouds
11:35 AM 74.8 °F 66.7 °F 76% 30.09 in 10.0 mi SE 21.9 mph 26.5 mph N/A   Mostly Cloudy
11:55 AM 75.7 °F 66.2 °F 72% 30.08 in 10.0 mi SE 20.7 mph 28.8 mph N/A   Mostly Cloudy
12:15 PM 75.7 °F 65.5 °F 70% 30.07 in 10.0 mi SE 21.9 mph 28.8 mph N/A   Mostly Cloudy
12:35 PM 76.3 °F 65.1 °F 68% 30.06 in 10.0 mi SE 24.2 mph - N/A   Mostly Cloudy
1:15 PM 77.4 °F 64.6 °F 65% 30.04 in 10.0 mi SE 25.3 mph 29.9 mph N/A   Scattered Clouds
1:35 PM 77.9 °F 63.1 °F 60% 30.03 in 10.0 mi SE 25.3 mph 31.1 mph N/A   Scattered Clouds
1:55 PM 77.0 °F 63.7 °F 63% 30.03 in 10.0 mi SE 24.2 mph 28.8 mph N/A   Scattered Clouds
2:15 PM 78.3 °F 64.2 °F 62% 30.02 in 10.0 mi SE 24.2 mph 29.9 mph N/A   Scattered Clouds
2:35 PM 77.2 °F 63.7 °F 63% 30.03 in 10.0 mi SE 25.3 mph 31.1 mph N/A   Mostly Cloudy
2:55 PM 77.5 °F 63.9 °F 63% 30.02 in 10.0 mi SE 25.3 mph 33.4 mph N/A   Scattered Clouds
3:15 PM 77.0 °F 63.9 °F 64% 30.02 in 10.0 mi SE 24.2 mph 32.2 mph N/A   Scattered Clouds
3:35 PM 75.0 °F 63.9 °F 68% 30.03 in 10.0 mi SE 24.2 mph 31.1 mph N/A   Mostly Cloudy
3:55 PM 74.1 °F 63.7 °F 70% 30.04 in 10.0 mi SE 21.9 mph 29.9 mph N/A   Mostly Cloudy
4:15 PM 73.4 °F 63.5 °F 71% 30.03 in 10.0 mi SE 25.3 mph 28.8 mph N/A   Overcast
4:35 PM 72.7 °F 63.5 °F 73% 30.04 in 10.0 mi ESE 19.6 mph 28.8 mph N/A   Overcast
4:55 PM 72.1 °F 63.5 °F 74% 30.03 in 10.0 mi ESE 21.9 mph 27.6 mph N/A   Mostly Cloudy
5:15 PM 72.0 °F 63.0 °F 73% 30.03 in 10.0 mi SE 24.2 mph 29.9 mph N/A   Scattered Clouds
5:35 PM 71.8 °F 62.8 °F 73% 30.04 in 10.0 mi SE 18.4 mph 24.2 mph N/A   Scattered Clouds
5:55 PM 71.6 °F 62.8 °F 74% 30.04 in 10.0 mi ESE 18.4 mph - N/A   Scattered Clouds
6:15 PM 71.1 °F 62.8 °F 75% 30.05 in 10.0 mi SE 17.3 mph - N/A   Mostly Cloudy
6:35 PM 70.9 °F 62.8 °F 75% 30.04 in 10.0 mi SE 20.7 mph 26.5 mph N/A   Mostly Cloudy
6:55 PM 70.5 °F 62.6 °F 76% 30.03 in 10.0 mi SE 20.7 mph 27.6 mph N/A   Scattered Clouds
7:15 PM 70.2 °F 62.6 °F 77% 30.02 in 10.0 mi SE 19.6 mph 27.6 mph N/A   Clear
7:35 PM 70.0 °F 62.6 °F 77% 30.02 in 10.0 mi SE 16.1 mph 24.2 mph N/A   Clear
7:55 PM 70.0 °F 62.8 °F 78% 30.02 in 10.0 mi SE 16.1 mph - N/A   Clear
8:15 PM 70.0 °F 63.0 °F 78% 30.03 in 10.0 mi SE 18.4 mph 25.3 mph N/A   Clear
8:35 PM 70.0 °F 63.1 °F 79% 30.03 in 10.0 mi SE 20.7 mph - N/A   Clear
8:55 PM 70.0 °F 63.1 °F 79% 30.03 in 10.0 mi SE 19.6 mph 23.0 mph N/A   Clear
9:15 PM 70.0 °F 63.1 °F 79% 30.03 in 10.0 mi SE 18.4 mph - N/A   Clear
9:35 PM 70.0 °F 63.0 °F 78% 30.03 in 10.0 mi SE 17.3 mph 21.9 mph N/A   Clear
9:55 PM 70.0 °F 63.0 °F 78% 30.04 in 10.0 mi SSE 13.8 mph - N/A   Clear
10:15 PM 70.0 °F 63.0 °F 78% 30.04 in 10.0 mi SSE 16.1 mph - N/A   Scattered Clouds
10:35 PM 70.2 °F 63.0 °F 78% 30.03 in 10.0 mi SE 13.8 mph - N/A   Scattered Clouds
10:55 PM 70.3 °F 63.0 °F 77% 30.03 in 10.0 mi SSE 12.7 mph 20.7 mph N/A   Mostly Cloudy
11:15 PM 70.5 °F 63.0 °F 77% 30.03 in 10.0 mi SSE 16.1 mph - N/A   Mostly Cloudy
11:35 PM 70.5 °F 63.0 °F 77% 30.02 in 10.0 mi SE 16.1 mph - N/A   Mostly Cloudy
11:55 PM 70.7 °F 63.5 °F 78% 30.01 in 10.0 mi SSE 16.1 mph - N/A   Overcast